QPF
0.00 0.00 0.00 0.00 0.00 0.00 0.01 0.02 0.02 0.02 0.03 0.02 0.00 0.00 0.00 0.00 0.00 0.00 0.00 0.00 0.00 0.00 0.00 0.00 0.00 0.00 0.00 0.00 0.00 0.01 0.05 0.06 0.05 0.02 0.01 0.01 0.06 0.12 0.21 0.28 0.29 0.29 0.25 0.19
0.00 0.00 0.00 0.00 0.00 0.00 0.00 0.00 0.00 0.01 0.01 0.00 0.00 0.00 0.00 0.00 0.01 0.01 0.02 0.00 0.00 0.00 0.00 0.00 0.00 0.00 0.00 0.00 0.00 0.00 0.00 0.02 0.04 0.04 0.02 0.01 0.01 0.03 0.07 0.20 0.19 0.22 0.33 0.35
0.00 0.00 0.00 0.00 0.00 0.00 0.00 0.00 0.00 0.00 0.01 0.00 0.00 0.00 0.00 0.00 0.00 0.01 0.02 0.02 0.00 0.00 0.00 0.00 0.00 0.00 0.00 0.00 0.00 0.00 0.00 0.00 0.00 0.02 0.03 0.02 0.02 0.02 0.02 0.08 0.16 0.18 0.28 0.23
0.00 0.00 0.00 0.01 0.00 0.00 0.00 0.00 0.00 0.00 0.00 0.00 0.00 0.00 0.00 0.00 0.01 0.00 0.00 0.01 0.02 0.01 0.00 0.00 0.00 0.00 0.00 0.00 0.00 0.00 0.00 0.00 0.00 0.00 0.01 0.04 0.02 0.01 0.01 0.02 0.09 0.09 0.09 0.12
0.02 0.01 0.00 0.00 0.00 0.00 0.00 0.00 0.00 0.00 0.00 0.00 0.00 0.00 0.00 0.00 0.00 0.00 0.00 0.00 0.00 0.01 0.01 0.00 0.00 0.00 0.00 0.00 0.00 0.00 0.00 0.00 0.00 0.00 0.00 0.01 0.02 0.02 0.02 0.01 0.03 0.03 0.04 0.04
0.00 0.00 0.00 0.02 0.00 0.00 0.00 0.00 0.00 0.00 0.00 0.00 0.00 0.01 0.00 0.00 0.00 0.00 0.00 0.00 0.00 0.00 0.00 0.00 0.00 0.00 0.00 0.00 0.00 0.00 0.00 0.01 0.00 0.00 0.01 0.01 0.01 0.01 0.01 0.01 0.02 0.02 0.02 0.03
0.00 0.00 0.01 0.02 0.00 0.00 0.00 0.00 0.00 0.00 0.00 0.01 0.01 0.01 0.00 0.00 0.00 0.00 0.00 0.00 0.00 0.00 0.00 0.00 0.00 0.00 0.00 0.00 0.00 0.00 0.00 0.00 0.00 0.00 0.00 0.00 0.01 0.00 0.01 0.01 0.02 0.03 0.02 0.02
0.00 0.00 0.01 0.01 0.01 0.03 0.03 0.01 0.00 0.01 0.00 0.01 0.00 0.00 0.00 0.00 0.00 0.00 0.00 0.00 0.00 0.00 0.00 0.00 0.00 0.00 0.00 0.00 0.00 0.00 0.00 0.00 0.00 0.00 0.00 0.00 0.00 0.00 0.00 0.02 0.01 0.01 0.02 0.01
0.01 0.02 0.03 0.02 0.04 0.04 0.04 0.03 0.01 0.03 0.01 0.02 0.02 0.01 0.01 0.01 0.01 0.00 0.00 0.00 0.00 0.00 0.00 0.01 0.01 0.00 0.00 0.00 0.00 0.00 0.00 0.01 0.00 0.00 0.00 0.00 0.00 0.00 0.00 0.00 0.00 0.00 0.00 0.00
0.01 0.01 0.00 0.00 0.01 0.02 0.03 0.05 0.05 0.06 0.03 0.03 0.05 0.04 0.03 0.02 0.02 0.01 0.01 0.01 0.00 0.00 0.01 0.02 0.01 0.00 0.01 0.00 0.00 0.00 0.00 0.00 0.00 0.00 0.00 0.00 0.00 0.00 0.00 0.00 0.00 0.00 0.00 0.00
0.00 0.00 0.00 0.00 0.00 0.02 0.02 0.02 0.01 0.02 0.05 0.06 0.05 0.04 0.07 0.05 0.05 0.05 0.04 0.03 0.04 0.03 0.04 0.05 0.03 0.01 0.00 0.01 0.00 0.00 0.00 0.00 0.00 0.00 0.00 0.00 0.00 0.00 0.00 0.00 0.00 0.00 0.00 0.00
0.00 0.01 0.02 0.01 0.01 0.02 0.03 0.03 0.03 0.04 0.03 0.04 0.07 0.09 0.08 0.07 0.06 0.05 0.03 0.02 0.01 0.03 0.10 0.12 0.10 0.03 0.00 0.00 0.01 0.00 0.00 0.00 0.00 0.00 0.00 0.00 0.00 0.00 0.00 0.00 0.00 0.00 0.01 0.00
0.00 0.00 0.01 0.00 0.00 0.00 0.02 0.02 0.03 0.04 0.05 0.06 0.06 0.08 0.08 0.08 0.08 0.05 0.05 0.05 0.06 0.09 0.13 0.16 0.15 0.09 0.03 0.01 0.00 0.00 0.00 0.00 0.00 0.00 0.00 0.00 0.00 0.00 0.00 0.00 0.00 0.00 0.01 0.01
0.00 0.00 0.00 0.00 0.00 0.00 0.00 0.00 0.02 0.04 0.04 0.05 0.06 0.06 0.08 0.08 0.06 0.06 0.10 0.13 0.14 0.13 0.17 0.20 0.20 0.15 0.11 0.07 0.03 0.01 0.00 0.00 0.00 0.00 0.00 0.00 0.00 0.00 0.00 0.00 0.00 0.00 0.00 0.00
0.00 0.00 0.00 0.00 0.00 0.00 0.00 0.00 0.00 0.00 0.01 0.01 0.03 0.04 0.04 0.06 0.07 0.10 0.11 0.14 0.19 0.16 0.19 0.19 0.20 0.22 0.18 0.12 0.08 0.07 0.05 0.03 0.02 0.01 0.00 0.00 0.00 0.00 0.00 0.00 0.00 0.00 0.00 0.00
0.00 0.00 0.00 0.00 0.00 0.00 0.00 0.00 0.00 0.00 0.00 0.00 0.01 0.02 0.04 0.06 0.08 0.09 0.08 0.09 0.14 0.21 0.19 0.17 0.12 0.12 0.12 0.11 0.08 0.04 0.03 0.02 0.01 0.00 0.00 0.00 0.00 0.00 0.00 0.00 0.00 0.00 0.00 0.00
0.00 0.00 0.00 0.00 0.00 0.00 0.00 0.00 0.00 0.00 0.00 0.00 0.00 0.00 0.01 0.01 0.03 0.05 0.07 0.07 0.08 0.17 0.18 0.13 0.09 0.04 0.02 0.01 0.01 0.01 0.00 0.00 0.00 0.00 0.00 0.00 0.00 0.00 0.00 0.00 0.00 0.00 0.00 0.00
0.00 0.00 0.00 0.00 0.00 0.00 0.00 0.00 0.00 0.00 0.00 0.00 0.00 0.00 0.00 0.00 0.00 0.01 0.03 0.05 0.04 0.04 0.09 0.11 0.08 0.03 0.01 0.00 0.00 0.00 0.00 0.00 0.00 0.00 0.00 0.00 0.00 0.00 0.00 0.00 0.00 0.00 0.00 0.00
0.00 0.00 0.00 0.00 0.00 0.00 0.00 0.00 0.00 0.00 0.00 0.00 0.00 0.00 0.00 0.00 0.00 0.00 0.00 0.01 0.02 0.03 0.03 0.05 0.04 0.02 0.01 0.00 0.00 0.00 0.00 0.00 0.00 0.00 0.00 0.00 0.00 0.00 0.00 0.00 0.00 0.00 0.00 0.00
0.00 0.00 0.00 0.00 0.00 0.00 0.00 0.00 0.00 0.00 0.00 0.00 0.00 0.00 0.00 0.00 0.00 0.00 0.00 0.00 0.01 0.02 0.00 0.02 0.03 0.01 0.00 0.00 0.00 0.00 0.00 0.00 0.00 0.00 0.00 0.00 0.00 0.00 0.00 0.00 0.00 0.00 0.00 0.00
0.00 0.00 0.00 0.00 0.00 0.00 0.00 0.00 0.00 0.00 0.00 0.00 0.00 0.00 0.00 0.00 0.00 0.00 0.00 0.00 0.00 0.00 0.00 0.00 0.01 0.01 0.00 0.00 0.00 0.00 0.00 0.00 0.00 0.00 0.00 0.00 0.00 0.00 0.00 0.00 0.00 0.00 0.00 0.00
0.00 0.00 0.00 0.00 0.00 0.00 0.00 0.00 0.00 0.00 0.00 0.00 0.00 0.00 0.00 0.00 0.00 0.00 0.00 0.00 0.00 0.00 0.00 0.00 0.01 0.03 0.00 0.00 0.00 0.00 0.00 0.00 0.00 0.00 0.00 0.00 0.00 0.00 0.00 0.00 0.00 0.00 0.00 0.00
0.00 0.00 0.00 0.00 0.00 0.00 0.00 0.00 0.00 0.00 0.00 0.00 0.00 0.00 0.00 0.00 0.00 0.00 0.00 0.00 0.00 0.00 0.00 0.00 0.00 0.04 0.00 0.00 0.00 0.00 0.00 0.00 0.00 0.00 0.00 0.00 0.00 0.00 0.00 0.00 0.00 0.00 0.00 0.00
0.00 0.00 0.00 0.00 0.00 0.00 0.00 0.00 0.00 0.00 0.00 0.00 0.00 0.00 0.00 0.00 0.00 0.00 0.00 0.00 0.00 0.00 0.00 0.00 0.00 0.02 0.00 0.00 0.00 0.00 0.00 0.00 0.00 0.00 0.00 0.00 0.00 0.00 0.00 0.00 0.00 0.00 0.00 0.00
0.00 0.00 0.00 0.00 0.00 0.00 0.00 0.00 0.00 0.00 0.00 0.00 0.00 0.00 0.00 0.00 0.00 0.00 0.00 0.00 0.00 0.00 0.00 0.00 0.00 0.00 0.00 0.00 0.00 0.00 0.00 0.00 0.00 0.00 0.00 0.00 0.00 0.00 0.00 0.00 0.00 0.00 0.00 0.00
0.00 0.00 0.00 0.00 0.00 0.00 0.00 0.00 0.00 0.00 0.00 0.00 0.00 0.00 0.00 0.00 0.00 0.00 0.00 0.00 0.00 0.00 0.00 0.00 0.00 0.00 0.00 0.00 0.00 0.00 0.00 0.00 0.00 0.00 0.00 0.00 0.00 0.00 0.00 0.00 0.00 0.00 0.00 0.00
0.00 0.00 0.00 0.00 0.00 0.00 0.00 0.00 0.01 0.00 0.00 0.00 0.00 0.00 0.00 0.00 0.00 0.00 0.00 0.00 0.00 0.00 0.00 0.00 0.00 0.00 0.00 0.00 0.00 0.00 0.00 0.00 0.00 0.00 0.00 0.00 0.00 0.00 0.00 0.00 0.00 0.00 0.00 0.00
MSLP
1019.67 1020.28 1020.93 1022.00 1022.26 1021.97 1021.24 1021.67 1021.34 1021.68 1021.85 1023.22 1023.46 1022.76 1021.72 1020.83 1019.83 1018.59 1017.12 1016.33 1015.76 1014.75 1013.87 1012.97 1012.09 1011.04 1010.23 1009.50 1008.96 1008.57 1007.74 1007.44 1007.54 1007.75 1007.97 1008.42 1009.09 1009.47 1010.01 1010.50 1011.25 1012.06 1012.54 1012.88
1021.05 1021.05 1021.94 1023.86 1024.86 1023.91 1023.11 1023.49 1023.41 1023.38 1023.66 1024.73 1024.86 1023.70 1022.54 1021.62 1020.63 1019.57 1018.43 1016.90 1016.10 1015.28 1014.59 1013.82 1013.25 1012.23 1011.18 1010.19 1009.38 1008.73 1008.10 1007.50 1007.34 1007.63 1007.94 1008.29 1008.79 1009.24 1009.94 1010.19 1010.77 1011.38 1011.83 1012.59
1022.78 1022.66 1023.24 1024.89 1026.74 1025.78 1026.27 1026.47 1026.17 1026.39 1026.99 1026.30 1024.67 1023.87 1023.33 1022.23 1021.52 1020.23 1018.95 1017.83 1016.46 1015.71 1015.17 1014.56 1013.89 1013.28 1011.99 1010.89 1010.00 1009.02 1008.40 1007.80 1007.45 1007.38 1007.66 1008.04 1008.35 1008.97 1009.46 1010.06 1010.09 1010.90 1011.62 1012.33
1024.37 1024.27 1026.22 1028.13 1028.11 1027.99 1028.03 1027.58 1027.97 1027.71 1027.20 1026.69 1025.87 1024.89 1023.56 1021.84 1020.91 1019.99 1019.77 1018.67 1016.76 1015.67 1015.24 1014.87 1014.27 1013.41 1012.13 1011.18 1010.34 1009.45 1008.90 1008.45 1007.94 1007.68 1007.72 1008.02 1008.27 1008.57 1009.03 1009.49 1009.96 1010.44 1010.88 1011.34
1026.05 1027.01 1028.46 1028.68 1028.94 1029.16 1029.07 1028.15 1028.20 1028.29 1027.83 1027.19 1026.03 1024.14 1021.84 1021.34 1020.99 1020.42 1019.43 1018.36 1017.14 1015.88 1014.92 1014.63 1014.32 1013.34 1012.03 1011.42 1010.92 1010.18 1009.61 1009.05 1008.63 1008.19 1008.06 1008.13 1008.44 1008.65 1009.08 1009.43 1009.80 1010.09 1010.64 1011.25
1027.60 1028.47 1030.05 1031.39 1030.08 1029.07 1028.44 1028.61 1028.64 1028.75 1028.09 1027.34 1025.88 1024.54 1022.37 1021.28 1020.26 1018.91 1017.57 1016.98 1016.55 1015.99 1014.88 1014.27 1013.73 1012.81 1011.77 1011.63 1011.36 1010.90 1010.19 1009.84 1009.32 1008.95 1008.64 1008.73 1008.75 1008.87 1009.13 1009.34 1009.87 1010.11 1010.66 1011.21
1029.50 1029.93 1031.35 1031.83 1030.55 1029.00 1029.98 1031.01 1029.34 1028.98 1028.09 1026.85 1026.34 1025.70 1023.86 1021.79 1018.93 1017.15 1015.47 1014.62 1014.81 1014.90 1014.64 1014.00 1012.88 1011.76 1011.74 1011.76 1011.58 1011.31 1010.72 1010.47 1010.07 1009.83 1009.55 1009.45 1009.32 1009.49 1009.55 1009.86 1010.33 1010.86 1011.38 1012.15
1031.45 1031.64 1032.55 1032.46 1031.52 1031.87 1032.76 1031.59 1030.54 1029.23 1028.11 1026.79 1025.52 1023.43 1021.21 1020.35 1018.85 1016.82 1014.65 1014.01 1013.91 1014.12 1014.13 1013.56 1011.90 1011.24 1011.60 1011.54 1011.65 1011.75 1011.06 1011.06 1010.98 1010.70 1010.56 1010.41 1010.12 1010.13 1010.36 1010.67 1011.06 1011.64 1012.15 1012.64
1033.72 1033.74 1033.91 1033.46 1033.40 1033.10 1032.68 1031.86 1030.53 1029.43 1028.07 1026.95 1025.37 1023.66 1022.08 1020.03 1017.75 1016.08 1014.68 1013.52 1013.25 1013.24 1012.97 1011.92 1011.43 1010.92 1011.14 1011.05 1011.66 1011.56 1011.66 1012.00 1011.84 1011.58 1011.64 1011.60 1011.29 1011.41 1011.59 1011.81 1012.02 1012.49 1013.00 1013.45
1034.44 1034.10 1033.90 1033.51 1033.39 1033.17 1032.64 1031.90 1030.80 1029.69 1028.45 1027.20 1025.87 1024.27 1022.63 1020.84 1019.13 1017.51 1015.90 1014.51 1013.68 1013.12 1012.65 1012.11 1011.63 1011.34 1010.97 1010.85 1011.90 1011.77 1012.34 1012.34 1012.54 1012.65 1012.48 1012.63 1012.69 1012.76 1012.78 1012.70 1012.78 1013.20 1013.57 1013.99
1035.51 1035.06 1034.13 1033.47 1033.57 1033.19 1032.53 1031.84 1030.81 1029.51 1028.50 1027.42 1026.24 1024.82 1023.47 1021.93 1020.42 1019.19 1017.63 1016.19 1015.18 1014.40 1013.75 1013.22 1012.44 1011.93 1011.41 1011.33 1011.88 1012.18 1012.31 1012.69 1012.96 1013.29 1013.43 1013.66 1013.78 1013.92 1013.97 1013.93 1013.79 1013.85 1014.25 1014.27
1036.75 1036.39 1036.14 1034.78 1033.96 1033.34 1032.89 1032.08 1031.15 1029.94 1028.55 1027.59 1026.71 1025.53 1024.19 1022.89 1021.70 1020.56 1019.22 1017.98 1016.80 1016.00 1015.20 1014.94 1014.08 1013.24 1011.82 1011.91 1012.27 1012.19 1012.14 1013.03 1013.45 1014.08 1014.32 1014.47 1014.70 1014.97 1015.11 1015.03 1014.83 1014.72 1014.74 1014.67
1037.50 1036.73 1036.12 1035.16 1034.50 1033.69 1033.01 1032.21 1031.32 1030.39 1029.40 1028.23 1027.10 1026.07 1024.88 1023.81 1022.73 1021.81 1020.45 1019.23 1018.41 1017.76 1016.99 1016.27 1015.74 1014.66 1013.67 1012.75 1012.13 1012.23 1012.80 1013.84 1014.18 1014.57 1015.15 1015.38 1015.52 1015.65 1015.88 1016.40 1016.14 1015.80 1015.75 1015.78
1037.16 1036.72 1035.93 1035.37 1034.93 1034.02 1033.19 1032.36 1031.59 1030.76 1029.89 1028.84 1027.75 1026.63 1025.54 1024.65 1023.69 1022.60 1021.54 1020.68 1019.74 1018.81 1017.93 1017.55 1017.08 1016.26 1015.46 1014.20 1013.25 1013.46 1014.13 1014.64 1014.89 1015.47 1015.85 1016.24 1016.33 1016.26 1016.51 1016.91 1017.13 1017.14 1016.92 1016.86
1037.27 1036.73 1036.33 1035.52 1034.83 1034.16 1033.32 1032.36 1031.54 1030.77 1029.83 1028.85 1028.04 1027.27 1026.32 1025.29 1024.41 1023.69 1022.81 1021.86 1020.92 1019.79 1019.04 1018.54 1018.38 1017.86 1016.96 1016.07 1015.18 1014.93 1015.23 1015.44 1015.99 1016.39 1016.67 1017.21 1017.55 1017.24 1017.22 1017.72 1018.18 1018.04 1017.95 1017.85
1036.98 1036.31 1035.85 1035.32 1034.66 1034.00 1033.42 1032.72 1031.95 1031.15 1030.36 1029.40 1028.50 1027.62 1026.99 1026.20 1025.36 1024.55 1023.66 1022.78 1021.59 1020.87 1020.38 1019.78 1019.80 1019.22 1018.63 1017.84 1017.27 1016.58 1016.76 1016.46 1017.06 1017.51 1017.80 1018.24 1018.28 1018.48 1018.26 1018.71 1019.02 1018.92 1019.06 1019.20
1036.90 1035.83 1035.39 1034.90 1034.43 1033.80 1033.29 1032.79 1032.27 1031.65 1031.01 1030.23 1029.32 1028.40 1027.49 1026.70 1025.95 1025.26 1024.59 1023.96 1023.32 1022.57 1021.76 1021.20 1021.36 1020.65 1020.27 1019.77 1019.44 1018.83 1018.88 1018.35 1018.40 1018.66 1019.20 1019.39 1019.21 1019.21 1019.74 1019.89 1019.85 1020.00 1019.92 1020.10
1036.51 1035.91 1035.36 1034.91 1034.32 1033.71 1033.16 1032.77 1032.35 1031.87 1031.26 1030.64 1029.85 1029.00 1028.33 1027.51 1026.95 1026.25 1025.66 1024.97 1024.15 1023.45 1022.82 1022.29 1022.23 1022.22 1021.82 1021.63 1021.43 1021.21 1020.58 1020.23 1019.87 1020.20 1020.40 1020.57 1020.56 1020.58 1021.13 1020.84 1020.96 1021.16 1021.42 1021.35
1035.74 1035.32 1034.91 1034.53 1034.08 1033.75 1033.30 1032.80 1032.42 1031.93 1031.42 1030.85 1030.22 1029.63 1029.01 1028.42 1027.89 1027.22 1026.53 1025.89 1025.19 1024.34 1023.98 1023.44 1023.23 1023.06 1023.08 1022.94 1023.01 1021.97 1021.32 1021.46 1021.85 1021.79 1021.47 1021.62 1021.72 1021.47 1021.69 1021.63 1021.93 1022.27 1022.31 1022.39
1035.14 1034.77 1034.36 1034.03 1033.74 1033.48 1033.13 1032.75 1032.39 1032.04 1031.45 1030.90 1030.41 1030.02 1029.58 1028.80 1028.17 1027.77 1027.40 1026.91 1026.38 1025.64 1024.98 1024.46 1024.19 1024.13 1023.85 1023.56 1023.25 1022.55 1022.68 1022.95 1022.88 1022.62 1022.56 1022.30 1022.27 1022.26 1022.49 1022.70 1022.92 1022.93 1023.05 1023.10
1034.63 1034.22 1033.94 1033.63 1033.26 1033.02 1032.78 1032.48 1032.27 1031.88 1031.33 1030.94 1030.43 1030.00 1029.69 1029.38 1029.05 1028.41 1027.70 1027.22 1026.74 1025.95 1025.36 1024.88 1024.64 1024.40 1024.25 1024.16 1024.13 1024.01 1024.15 1024.10 1024.03 1023.63 1023.22 1023.15 1023.18 1023.17 1023.38 1023.73 1023.65 1023.54 1023.68 1023.77
1034.26 1033.93 1033.56 1033.26 1032.98 1032.59 1032.31 1032.10 1031.86 1031.45 1031.07 1030.73 1030.39 1030.04 1029.58 1029.11 1028.74 1028.35 1028.04 1027.58 1026.73 1026.18 1026.01 1025.71 1025.28 1024.83 1024.89 1024.94 1025.07 1025.06 1024.88 1024.59 1024.25 1023.96 1023.87 1023.71 1023.71 1023.92 1024.16 1024.37 1024.41 1024.35 1024.36 1024.27
1033.74 1033.44 1033.06 1032.78 1032.57 1032.31 1032.00 1031.71 1031.34 1031.03 1030.71 1030.40 1030.09 1029.79 1029.54 1029.27 1028.87 1028.41 1028.07 1027.85 1027.45 1026.78 1026.58 1026.34 1025.53 1025.24 1025.62 1025.79 1025.73 1025.47 1025.25 1025.14 1024.98 1024.80 1024.64 1024.51 1024.54 1024.55 1024.68 1024.80 1024.74 1024.77 1024.70 1024.64
1033.08 1032.74 1032.47 1032.17 1032.01 1031.89 1031.59 1031.07 1030.87 1030.66 1030.36 1029.95 1029.64 1029.40 1029.19 1028.86 1028.54 1028.31 1028.11 1027.76 1027.35 1026.79 1026.70 1026.53 1025.92 1025.58 1025.82 1025.97 1025.94 1025.97 1025.88 1025.80 1025.62 1025.43 1025.36 1025.23 1025.30 1025.24 1025.26 1025.17 1025.03 1024.87 1024.84 1024.77
1032.34 1032.11 1031.94 1031.80 1031.50 1031.16 1030.82 1030.49 1030.30 1030.11 1029.90 1029.64 1029.33 1028.96 1028.71 1028.55 1028.47 1027.98 1027.79 1027.65 1027.44 1027.20 1027.06 1026.86 1026.38 1026.03 1026.28 1026.32 1026.34 1026.33 1026.27 1026.21 1026.02 1025.78 1025.84 1025.79 1025.76 1025.71 1025.60 1025.42 1025.20 1025.02 1024.86 1024.78
1031.53 1031.30 1031.09 1030.92 1030.78 1030.51 1030.25 1030.06 1029.85 1029.49 1029.30 1029.01 1028.79 1028.63 1028.40 1028.20 1028.00 1027.78 1027.58 1027.33 1027.18 1027.05 1027.11 1026.97 1026.77 1026.52 1026.61 1026.68 1026.70 1026.72 1026.63 1026.52 1026.37 1026.21 1026.08 1026.16 1026.10 1025.96 1025.73 1025.49 1025.23 1024.98 1024.81 1024.71
1030.64 1030.35 1030.29 1030.25 1030.04 1029.87 1029.74 1029.53 1029.12 1028.89 1028.71 1028.50 1028.24 1027.96 1027.84 1027.79 1027.75 1027.55 1027.48 1027.41 1027.30 1027.18 1027.03 1026.90 1026.80 1026.63 1026.44 1026.55 1026.75 1026.84 1026.87 1026.82 1026.49 1026.10 1026.30 1026.39 1026.28 1026.10 1025.79 1025.54 1025.35 1025.03 1024.75 1024.47
Thickness
5286 5290 5278 5270 5277 5295 5309 5308 5325 5317 5327 5300 5310 5327 5347 5361 5375 5392 5411 5424 5436 5451 5459 5471 5485 5501 5514 5526 5534 5540 5551 5558 5560 5561 5559 5560 5558 5561 5559 5557 5558 5556 5556 5557
5258 5278 5272 5239 5241 5264 5279 5274 5289 5294 5309 5285 5293 5312 5330 5341 5355 5371 5386 5408 5421 5436 5445 5457 5465 5482 5497 5511 5522 5532 5540 5552 5556 5556 5556 5555 5554 5556 5556 5559 5559 5558 5560 5558
5232 5252 5251 5226 5215 5236 5234 5241 5255 5251 5250 5263 5283 5299 5308 5322 5333 5350 5369 5389 5408 5421 5431 5441 5451 5463 5482 5496 5507 5523 5533 5542 5549 5553 5554 5553 5554 5551 5551 5551 5558 5556 5555 5555
5210 5237 5172 5196 5206 5212 5209 5226 5220 5228 5238 5246 5261 5278 5296 5314 5328 5347 5356 5373 5396 5408 5418 5428 5439 5452 5470 5484 5495 5510 5520 5528 5537 5544 5548 5548 5549 5551 5549 5548 5550 5551 5553 5554
5225 5191 5190 5189 5189 5187 5189 5206 5211 5211 5217 5228 5246 5269 5302 5314 5324 5333 5345 5363 5380 5396 5410 5419 5428 5443 5463 5472 5480 5494 5504 5513 5522 5531 5538 5542 5542 5543 5542 5542 5544 5544 5544 5546
5197 5187 5179 5160 5179 5190 5193 5200 5197 5197 5210 5216 5232 5248 5280 5294 5309 5328 5348 5362 5375 5383 5399 5411 5421 5439 5456 5462 5468 5479 5490 5498 5507 5515 5523 5527 5531 5534 5535 5536 5535 5537 5538 5536
5185 5185 5167 5159 5169 5188 5165 5173 5184 5187 5197 5214 5219 5230 5254 5275 5304 5327 5352 5369 5373 5379 5387 5400 5421 5439 5447 5452 5457 5464 5476 5483 5492 5498 5506 5512 5518 5521 5524 5524 5524 5523 5522 5519
5175 5162 5138 5153 5162 5153 5152 5160 5170 5181 5191 5203 5215 5238 5267 5270 5284 5310 5339 5356 5364 5370 5379 5392 5419 5434 5438 5442 5447 5453 5465 5470 5474 5480 5487 5493 5501 5507 5510 5511 5511 5510 5509 5509
5140 5151 5144 5145 5145 5149 5150 5156 5167 5175 5188 5196 5208 5225 5238 5255 5278 5298 5318 5337 5353 5367 5377 5396 5408 5423 5429 5436 5438 5446 5452 5454 5460 5466 5469 5474 5482 5486 5489 5493 5496 5494 5494 5493
5143 5148 5142 5144 5147 5148 5150 5154 5163 5171 5181 5191 5199 5212 5225 5236 5253 5268 5287 5309 5327 5348 5370 5382 5392 5404 5416 5424 5423 5432 5435 5442 5446 5452 5457 5460 5463 5466 5469 5474 5478 5479 5480 5480
5137 5143 5144 5155 5147 5148 5150 5154 5161 5171 5178 5184 5191 5200 5207 5218 5232 5244 5259 5273 5290 5311 5336 5357 5373 5387 5401 5408 5412 5418 5425 5428 5432 5435 5440 5444 5448 5451 5453 5456 5461 5463 5463 5467
5128 5128 5131 5139 5145 5148 5148 5152 5157 5166 5174 5179 5182 5188 5197 5204 5214 5223 5235 5250 5263 5275 5297 5318 5342 5362 5383 5393 5398 5409 5416 5415 5419 5419 5424 5428 5430 5431 5434 5438 5444 5448 5450 5453
5127 5132 5133 5137 5142 5145 5147 5151 5156 5159 5165 5172 5177 5181 5189 5194 5202 5208 5222 5236 5245 5253 5266 5289 5312 5334 5354 5375 5390 5396 5400 5399 5402 5405 5407 5411 5415 5418 5419 5418 5423 5429 5432 5434
5134 5136 5137 5135 5140 5143 5144 5148 5152 5155 5160 5166 5170 5176 5182 5188 5193 5202 5212 5221 5230 5240 5253 5270 5288 5308 5326 5351 5368 5376 5377 5381 5386 5386 5390 5393 5397 5402 5404 5405 5406 5407 5412 5415
5136 5137 5137 5142 5143 5143 5145 5150 5152 5156 5161 5165 5169 5171 5175 5183 5189 5195 5203 5211 5217 5229 5244 5260 5271 5285 5303 5325 5343 5354 5357 5360 5363 5368 5373 5373 5375 5383 5387 5386 5385 5390 5392 5395
5140 5145 5145 5143 5147 5148 5149 5151 5153 5155 5159 5163 5166 5169 5171 5177 5183 5190 5198 5207 5218 5226 5236 5246 5260 5275 5288 5299 5314 5330 5337 5346 5347 5349 5352 5353 5358 5362 5368 5367 5367 5371 5372 5372
5142 5145 5146 5147 5149 5151 5151 5153 5155 5157 5157 5159 5162 5166 5172 5176 5181 5185 5191 5197 5204 5214 5225 5237 5245 5262 5272 5281 5292 5305 5310 5322 5329 5331 5330 5333 5340 5344 5345 5347 5349 5351 5355 5354
5141 5143 5144 5145 5146 5149 5151 5153 5153 5154 5155 5157 5160 5164 5167 5171 5175 5180 5185 5191 5201 5209 5218 5229 5238 5245 5256 5262 5271 5279 5289 5298 5307 5309 5312 5313 5317 5321 5320 5327 5328 5329 5329 5332
5141 5140 5140 5142 5143 5143 5145 5147 5150 5151 5153 5155 5158 5160 5163 5167 5170 5177 5183 5190 5196 5206 5210 5221 5228 5235 5242 5248 5252 5266 5278 5280 5281 5287 5293 5295 5297 5304 5306 5310 5309 5308 5310 5311
5140 5139 5138 5138 5138 5138 5139 5141 5142 5143 5148 5151 5155 5156 5157 5163 5169 5172 5176 5182 5187 5195 5203 5211 5217 5223 5230 5237 5245 5255 5259 5260 5264 5271 5276 5281 5284 5288 5289 5291 5291 5293 5294 5295
5138 5137 5135 5134 5134 5132 5133 5133 5133 5135 5141 5145 5149 5152 5154 5155 5157 5163 5170 5175 5182 5191 5198 5205 5210 5216 5221 5226 5231 5237 5240 5244 5247 5252 5260 5265 5268 5271 5272 5271 5274 5278 5279 5280
5132 5131 5131 5130 5129 5129 5128 5126 5126 5129 5132 5135 5139 5143 5147 5152 5156 5160 5163 5168 5178 5184 5187 5192 5197 5205 5208 5211 5214 5219 5225 5231 5237 5242 5246 5251 5254 5255 5255 5256 5258 5261 5263 5266
5128 5127 5128 5127 5126 5124 5121 5121 5121 5122 5123 5126 5129 5131 5135 5139 5144 5150 5154 5157 5161 5168 5172 5178 5189 5193 5193 5194 5199 5205 5211 5215 5220 5224 5229 5233 5236 5239 5240 5241 5245 5247 5250 5252
5126 5126 5124 5123 5119 5117 5115 5118 5116 5116 5115 5117 5119 5121 5123 5126 5131 5135 5139 5145 5151 5159 5161 5165 5173 5179 5179 5181 5185 5188 5193 5197 5202 5207 5210 5215 5217 5221 5223 5226 5230 5234 5236 5239
5122 5120 5116 5114 5113 5114 5112 5112 5109 5107 5107 5106 5107 5109 5111 5113 5114 5119 5123 5127 5133 5138 5142 5146 5154 5160 5161 5164 5167 5171 5175 5179 5184 5189 5192 5196 5200 5203 5207 5211 5215 5219 5223 5225
5116 5115 5112 5109 5108 5107 5106 5103 5101 5100 5099 5098 5096 5096 5096 5097 5100 5103 5105 5110 5114 5118 5121 5126 5131 5137 5141 5145 5149 5152 5157 5161 5164 5169 5176 5179 5183 5187 5192 5196 5200 5204 5208 5211
5112 5112 5107 5103 5100 5097 5095 5094 5095 5093 5089 5087 5085 5085 5084 5084 5084 5087 5088 5089 5092 5095 5099 5105 5110 5115 5121 5125 5128 5132 5136 5140 5146 5152 5157 5161 5166 5171 5175 5180 5184 5188 5192 5195